This demonstration page uses our WeatherBlox Daily Observations layout. Learn more.

Left ArrowRight Arrow

Hourly Observations for April 14, 2015

Temp ( °F °C ) Dew Point ( °F °C ) Humidity (%) Winds ( mph kmh ) Pressure ( in mb ) Visibility ( mi km ) Precip ( " mm )
12:53 am 00:53 Cloudy 62 16.7 57 13.9 84 84 N 3 6 30.13 1020 10 16.0934 0 0
1:53 am 01:53 Mostly Clear 60 15.6 53 11.7 78 78 NNE 7 11 30.14 1021 10 16.0934 0 0
2:53 am 02:53 Cloudy 59 15 50 10 72 72 NE 5 7 30.14 1021 10 16.0934 0 0
3:53 am 03:53 Cloudy 59 15 42 5.6 54 54 NE 6 9 30.14 1021 10 16.0934 0 0
4:53 am 04:53 Partly Cloudy 58 14.4 41 5 53 53 NE 6 9 30.14 1021 10 16.0934 0 0
5:53 am 05:53 Clear 57 13.9 40 4.4 53 53 NE 9 15 30.14 1021 10 16.0934 0 0
6:53 am 06:53 Clear 56 13.3 38 3.3 51 51 ENE 8 13 30.14 1021 10 16.0934 0 0
7:53 am 07:53 Sunny 56 13.3 39 3.9 53 53 E 8 13 30.16 1022 10 16.0934 0 0
8:53 am 08:53 Sunny 56 13.3 40 4.4 55 55 ENE 6 9 30.19 1022 10 16.0934 0 0
9:53 am 09:53 Mostly Sunny 56 13.3 41 5 57 57 NE 6 9 30.19 1022 10 16.0934 0 0
10:53 am 10:53 Partly Cloudy 57 13.9 42 5.6 58 58 NE 8 13 30.21 1023 10 16.0934 0 0
11:53 am 11:53 Sunny 59 15 41 5 51 51 NE 12 19 30.2 1023 10 16.0934 0 0
12:53 pm 12:53 Sunny 61 16.1 38 3.3 43 43 NE 7 11 30.21 1023 10 16.0934 0 0
1:53 pm 13:53 Sunny 62 16.7 36 2.2 38 38 ENE 13 20 30.18 1022 10 16.0934 0 0
2:53 pm 14:53 Sunny 63 17.2 37 2.8 38 38 NE 13 20 30.15 1021 10 16.0934 0 0
3:53 pm 15:53 Sunny 62 16.7 36 2.2 38 38 ENE 13 20 30.15 1021 10 16.0934 0 0
4:53 pm 16:53 Sunny 62 16.7 37 2.8 40 40 ENE 10 17 30.15 1021 10 16.0934 0 0
5:53 pm 17:53 Sunny 63 17.2 39 3.9 41 41 NE 10 17 30.15 1021 N/A 0 0
6:53 pm 18:53 Sunny 62 16.7 40 4.4 44 44 undefined N/A 30.16 1021 10 16.0934 0 0
7:53 pm 19:53 Sunny 60 15.6 39 3.9 46 46 NNE 8 13 30.16 1022 10 16.0934 0 0
8:53 pm 20:53 Clear 57 13.9 42 5.6 58 58 Calm 30.17 1022 10 16.0934 0 0
9:53 pm 21:53 Clear 50 10 43 6.1 77 77 NE 3 6 30.19 1022 10 16.0934 0 0
10:53 pm 22:53 Clear 53 11.7 40 4.4 61 61 N 6 9 30.21 1023 10 16.0934 0 0
11:53 pm 23:53 Clear 49 9.4 41 5 74 74 NNE 5 7 30.2 1023 10 16.0934 0 0

Powered by AerisWeather